| time (UTC) | temp F | wind direction | speed MPH | gust MPH | rain 1hr in | rain 24hr in | rain mn in | humidity % | barometer mb |
| 20260507070056 | 49 | 261 | 2.0 | 4.0 | 0.00 | 0.06 | 0.01 | 87 | 1016.9 |
| 20260507065055 | 49 | 255 | 2.0 | 4.0 | 0.00 | 0.06 | 0.01 | 90 | 1016.9 |
| 20260507064054 | 48 | 260 | 2.0 | 4.0 | 0.00 | 0.06 | 0.01 | 91 | 1016.8 |
| 20260507063054 | 48 | 265 | 2.0 | 5.0 | 0.00 | 0.08 | 0.01 | 92 | 1016.8 |
| 20260507061058 | 48 | 265 | 2.0 | 5.0 | 0.00 | 0.09 | 0.01 | 95 | 1016.7 |
| 20260507060055 | 47 | 274 | 3.0 | 5.0 | 0.00 | 0.09 | 0.01 | 97 | 1016.5 |
| 20260507055052 | 47 | 288 | 2.0 | 5.0 | 0.00 | 0.12 | 0.01 | 98 | 1016.4 |
| 20260507054056 | 46 | 284 | 2.0 | 5.0 | 0.00 | 0.13 | 0.01 | 98 | 1016.4 |
| 20260507053052 | 46 | 287 | 2.0 | 4.0 | 0.00 | 0.14 | 0.01 | 98 | 1016.4 |
| 20260507052055 | 46 | 294 | 1.0 | 3.0 | 0.00 | 0.15 | 0.01 | 99 | 1016.3 |
| 20260507051057 | 46 | 289 | 1.0 | 3.0 | 0.00 | 0.16 | 0.01 | 10 | 1016.2 |
| 20260507045057 | 45 | 260 | 1.0 | 3.0 | 0.00 | 0.19 | 0.01 | 10 | 1016.0 |
| 20260507044059 | 45 | 235 | 0.0 | 2.0 | 0.00 | 0.20 | 0.01 | 10 | 1015.9 |
| 20260507043056 | 45 | 285 | 1.0 | 2.0 | 0.00 | 0.20 | 0.01 | 10 | 1015.9 |
| 20260507042056 | 45 | 282 | 1.0 | 2.0 | 0.00 | 0.21 | 0.01 | 10 | 1015.8 |
| 20260507040056 | 45 | 303 | 0.0 | 1.0 | 0.00 | 0.24 | 0.01 | 10 | 1015.7 |
| 20260507035057 | 45 | 311 | 0.0 | 1.0 | 0.00 | 0.24 | 0.01 | 10 | 1015.7 |
| 20260507034056 | 45 | 298 | 0.0 | 1.0 | 0.00 | 0.25 | 0.01 | 10 | 1015.6 |
| 20260507033053 | 45 | 296 | 0.0 | 0.0 | 0.00 | 0.26 | 0.01 | 10 | 1015.5 |
| 20260507032056 | 45 | 296 | 0.0 | 0.0 | 0.01 | 0.27 | 0.01 | 10 | 1015.5 |
| 20260507031054 | 45 | 296 | 0.0 | 2.0 | 0.01 | 0.28 | 0.01 | 10 | 1015.5 |
| 20260507030056 | 45 | 303 | 1.0 | 2.0 | 0.01 | 0.28 | 0.01 | 99 | 1015.5 |
| 20260507025054 | 45 | 323 | 0.0 | 2.0 | 0.01 | 0.28 | 0.01 | 99 | 1015.4 |
| 20260507023051 | 45 | 22 | 1.0 | 3.0 | 0.01 | 0.30 | 0.01 | 99 | 1015.3 |
| 20260507022057 | 45 | 22 | 1.0 | 3.0 | 0.01 | 0.31 | 0.01 | 98 | 1015.3 |
| 20260507021056 | 45 | 34 | 2.0 | 5.0 | 0.00 | 0.30 | 0.00 | 97 | 1015.3 |
| 20260507020055 | 46 | 20 | 3.0 | 5.0 | 0.00 | 0.31 | 0.00 | 97 | 1015.2 |
| 20260507015055 | 45 | 9 | 1.0 | 3.0 | 0.00 | 0.31 | 0.00 | 98 | 1015.1 |
| 20260507014057 | 45 | 13 | 1.0 | 2.0 | 0.00 | 0.32 | 0.00 | 99 | 1015.1 |
| 20260507012053 | 45 | 357 | 1.0 | 3.0 | 0.00 | 0.34 | 0.00 | 99 | 1015.1 |
| 20260507011058 | 45 | 357 | 1.0 | 3.0 | 0.00 | 0.35 | 0.00 | 99 | 1015.0 |
| 20260507010058 | 45 | 6 | 1.0 | 3.0 | 0.00 | 0.36 | 0.00 | 99 | 1015.0 |
| 20260507005055 | 45 | 14 | 2.0 | 4.0 | 0.00 | 0.37 | 0.00 | 99 | 1014.9 |
| 20260507004056 | 45 | 14 | 2.0 | 4.0 | 0.00 | 0.39 | 0.00 | 98 | 1014.9 |
| 20260507003057 | 46 | 14 | 2.0 | 4.0 | 0.00 | 0.39 | 0.00 | 98 | 1014.9 |
| 20260507002057 | 45 | 19 | 2.0 | 3.0 | 0.00 | 0.39 | 0.00 | 99 | 1014.8 |
| 20260507001056 | 45 | 23 | 2.0 | 4.0 | 0.00 | 0.40 | 0.00 | 99 | 1014.8 |
| 20260507000101 | 45 | 23 | 2.0 | 4.0 | 0.00 | 0.41 | 0.00 | 99 | 1014.7 |
| 20260506235106 | 45 | 22 | 2.0 | 4.0 | 0.00 | 0.42 | 0.00 | 99 | 1014.7 |
| 20260506234105 | 45 | 22 | 2.0 | 5.0 | 0.00 | 0.43 | 0.00 | 99 | 1014.7 |
| 20260506233106 | 45 | 19 | 2.0 | 5.0 | 0.00 | 0.43 | 0.00 | 99 | 1014.6 |
| 20260506232104 | 45 | 21 | 2.0 | 4.0 | 0.00 | 0.43 | 0.00 | 99 | 1014.5 |
| 20260506231104 | 45 | 19 | 3.0 | 5.0 | 0.00 | 0.44 | 0.00 | 99 | 1014.5 |
| 20260506230106 | 45 | 10 | 3.0 | 6.0 | 0.00 | 0.45 | 0.00 | 98 | 1014.4 |
| 20260506225103 | 44 | 10 | 3.0 | 5.0 | 0.00 | 0.45 | 0.00 | 99 | 1014.3 |
| 20260506224105 | 44 | 1 | 3.0 | 5.0 | 0.00 | 0.46 | 0.00 | 98 | 1014.2 |
| 20260506223106 | 44 | 358 | 3.0 | 6.0 | 0.00 | 0.46 | 0.00 | 98 | 1014.2 |
| 20260506220116 | 44 | 349 | 3.0 | 6.0 | 0.00 | 0.50 | 0.00 | 97 | 1014.1 |
| 20260506215114 | 44 | 349 | 3.0 | 6.0 | 0.00 | 0.51 | 0.50 | 96 | 1014.1 |
| 20260506213110 | 44 | 341 | 4.0 | 6.0 | 0.00 | 0.53 | 0.50 | 94 | 1014.0 |
| 20260506211112 | 45 | 339 | 4.0 | 8.0 | 0.00 | 0.54 | 0.50 | 92 | 1013.7 |
| 20260506210111 | 46 | 346 | 3.0 | 7.0 | 0.00 | 0.56 | 0.50 | 91 | 1013.6 |
| 20260506205109 | 46 | 350 | 4.0 | 7.0 | 0.00 | 0.58 | 0.50 | 91 | 1013.5 |
| 20260506204109 | 46 | 349 | 4.0 | 9.0 | 0.00 | 0.58 | 0.50 | 90 | 1013.4 |
| 20260506202112 | 47 | 355 | 4.0 | 9.0 | 0.00 | 0.59 | 0.50 | 89 | 1013.3 |
| 20260506201114 | 48 | 350 | 3.0 | 6.0 | 0.00 | 0.61 | 0.50 | 88 | 1013.2 |
| 20260506200112 | 48 | 350 | 3.0 | 6.0 | 0.00 | 0.61 | 0.50 | 88 | 1013.1 |
| 20260506195109 | 48 | 358 | 3.0 | 8.0 | 0.00 | 0.61 | 0.50 | 89 | 1013.0 |
| 20260506194111 | 48 | 8 | 4.0 | 7.0 | 0.00 | 0.61 | 0.50 | 90 | 1012.9 |
| 20260506193110 | 49 | 9 | 4.0 | 6.0 | 0.00 | 0.61 | 0.50 | 91 | 1012.8 |
| 20260506192111 | 49 | 11 | 4.0 | 7.0 | 0.00 | 0.62 | 0.50 | 91 | 1012.7 |
| 20260506190111 | 50 | 348 | 2.0 | 5.0 | 0.00 | 0.64 | 0.50 | 94 | 1012.3 |
| 20260506185109 | 50 | 351 | 2.0 | 5.0 | 0.00 | 0.65 | 0.50 | 93 | 1012.2 |
| 20260506184102 | 51 | 342 | 3.0 | 6.0 | 0.00 | 0.65 | 0.50 | 91 | 1012.0 |
| 20260506183107 | 51 | 320 | 2.0 | 6.0 | 0.00 | 0.65 | 0.50 | 90 | 1011.9 |
| 20260506180109 | 51 | 314 | 2.0 | 7.0 | 0.00 | 0.66 | 0.50 | 88 | 1011.5 |
| 20260506175106 | 51 | 311 | 2.0 | 6.0 | 0.00 | 0.66 | 0.50 | 88 | 1011.4 |
| 20260506174106 | 51 | 46 | 2.0 | 6.0 | 0.00 | 0.66 | 0.50 | 87 | 1011.3 |
| 20260506173103 | 51 | 316 | 3.0 | 7.0 | 0.00 | 0.66 | 0.50 | 87 | 1011.1 |
| 20260506172106 | 51 | 316 | 3.0 | 9.0 | 0.00 | 0.66 | 0.50 | 85 | 1011.0 |
| 20260506171105 | 52 | 302 | 4.0 | 9.0 | 0.00 | 0.66 | 0.50 | 83 | 1011.0 |
| 20260506170100 | 52 | 355 | 3.0 | 9.0 | 0.00 | 0.66 | 0.50 | 82 | 1010.9 |
| 20260506165100 | 53 | 321 | 5.0 | 11.0 | 0.00 | 0.66 | 0.50 | 83 | 1010.8 |
| 20260506164103 | 53 | 355 | 3.0 | 9.0 | 0.00 | 0.66 | 0.50 | 81 | 1010.8 |
| 20260506163101 | 53 | 296 | 3.0 | 8.0 | 0.00 | 0.66 | 0.50 | 85 | 1010.8 |
| 20260506162106 | 52 | 290 | 2.0 | 5.0 | 0.00 | 0.66 | 0.50 | 85 | 1010.8 |
| 20260506161104 | 51 | 293 | 1.0 | 5.0 | 0.00 | 0.66 | 0.50 | 92 | 1010.8 |
| 20260506155103 | 51 | 253 | 1.0 | 3.0 | 0.00 | 0.66 | 0.50 | 95 | 1010.9 |
| 20260506154107 | 51 | 299 | 1.0 | 3.0 | 0.00 | 0.66 | 0.50 | 93 | 1010.9 |
| 20260506153101 | 51 | 331 | 1.0 | 4.0 | 0.00 | 0.66 | 0.50 | 93 | 1010.9 |
| 20260506152101 | 51 | 36 | 1.0 | 4.0 | 0.00 | 0.66 | 0.50 | 91 | 1010.8 |
| 20260506151104 | 52 | 340 | 2.0 | 4.0 | 0.00 | 0.66 | 0.50 | 90 | 1010.8 |
| 20260506150100 | 52 | 356 | 2.0 | 5.0 | 0.00 | 0.66 | 0.50 | 90 | 1010.8 |
| 20260506144059 | 52 | 3 | 2.0 | 5.0 | 0.00 | 0.66 | 0.50 | 88 | 1010.7 |
| 20260506143059 | 53 | 291 | 3.0 | 6.0 | 0.00 | 0.66 | 0.50 | 88 | 1010.6 |
| 20260506142058 | 53 | 322 | 3.0 | 6.0 | 0.00 | 0.66 | 0.50 | 86 | 1010.7 |
| 20260506141059 | 53 | 314 | 2.0 | 6.0 | 0.00 | 0.66 | 0.50 | 87 | 1010.7 |
| 20260506140106 | 52 | 282 | 3.0 | 7.0 | 0.00 | 0.66 | 0.50 | 92 | 1010.7 |
| 20260506135100 | 52 | 285 | 2.0 | 5.0 | 0.00 | 0.66 | 0.50 | 93 | 1010.7 |
| 20260506134100 | 52 | 290 | 3.0 | 7.0 | 0.00 | 0.66 | 0.50 | 93 | 1010.8 |
| 20260506133059 | 52 | 294 | 3.0 | 6.0 | 0.00 | 0.66 | 0.50 | 91 | 1010.8 |
| 20260506132059 | 51 | 298 | 3.0 | 6.0 | 0.00 | 0.66 | 0.50 | 92 | 1010.8 |
| 20260506131059 | 51 | 314 | 3.0 | 7.0 | 0.00 | 0.66 | 0.50 | 92 | 1010.7 |
| 20260506130059 | 51 | 313 | 3.0 | 7.0 | 0.00 | 0.66 | 0.50 | 92 | 1010.7 |
| 20260506125059 | 52 | 303 | 3.0 | 8.0 | 0.00 | 0.66 | 0.50 | 93 | 1010.6 |
| 20260506122058 | 52 | 306 | 3.0 | 8.0 | 0.00 | 0.66 | 0.50 | 91 | 1010.4 |
| 20260506121056 | 52 | 335 | 3.0 | 8.0 | 0.00 | 0.66 | 0.50 | 91 | 1010.3 |
| 20260506115058 | 51 | 319 | 4.0 | 9.0 | 0.00 | 0.66 | 0.50 | 94 | 1010.3 |
| 20260506114100 | 51 | 331 | 4.0 | 11.0 | 0.00 | 0.66 | 0.50 | 95 | 1010.4 |
| 20260506113100 | 51 | 324 | 4.0 | 10.0 | 0.00 | 0.66 | 0.50 | 95 | 1010.4 |
| 20260506112100 | 51 | 316 | 4.0 | 8.0 | 0.00 | 0.66 | 0.50 | 95 | 1010.4 |
| 20260506111100 | 51 | 336 | 5.0 | 10.0 | 0.00 | 0.66 | 0.50 | 97 | 1010.4 |
| 20260506110058 | 50 | 337 | 4.0 | 9.0 | 0.00 | 0.66 | 0.50 | 98 | 1010.5 |
| 20260506105058 | 50 | 226 | 5.0 | 10.0 | 0.00 | 0.66 | 0.50 | 99 | 1010.5 |
| 20260506104100 | 49 | 331 | 4.0 | 10.0 | 0.00 | 0.66 | 0.50 | 99 | 1010.6 |
| 20260506103059 | 49 | 355 | 3.0 | 8.0 | 0.00 | 0.66 | 0.50 | 10 | 1010.6 |
| 20260506102100 | 49 | 342 | 5.0 | 13.0 | 0.00 | 0.66 | 0.50 | 10 | 1010.5 |
| 20260506101058 | 48 | 351 | 5.0 | 11.0 | 0.00 | 0.66 | 0.50 | 10 | 1010.5 |
| 20260506100057 | 48 | 352 | 5.0 | 11.0 | 0.00 | 0.66 | 0.50 | 10 | 1010.4 |
| 20260506095058 | 48 | 344 | 4.0 | 9.0 | 0.01 | 0.66 | 0.50 | 10 | 1010.4 |
| 20260506094059 | 48 | 53 | 5.0 | 10.0 | 0.01 | 0.66 | 0.50 | 10 | 1010.3 |
| 20260506093058 | 47 | 75 | 4.0 | 9.0 | 0.01 | 0.66 | 0.50 | 10 | 1010.2 |
| 20260506091057 | 47 | 228 | 5.0 | 10.0 | 0.02 | 0.66 | 0.50 | 10 | 1010.1 |
| 20260506090100 | 47 | 330 | 4.0 | 8.0 | 0.02 | 0.66 | 0.50 | 10 | 1010.0 |
| 20260506085059 | 47 | 329 | 4.0 | 10.0 | 0.02 | 0.66 | 0.50 | 10 | 1009.9 |
| 20260506084056 | 47 | 332 | 5.0 | 10.0 | 0.02 | 0.65 | 0.49 | 10 | 1009.8 |
| 20260506083056 | 47 | 330 | 5.0 | 11.0 | 0.02 | 0.66 | 0.49 | 10 | 1009.7 |
| 20260506082056 | 47 | 335 | 5.0 | 10.0 | 0.03 | 0.66 | 0.49 | 10 | 1009.7 |
| 20260506081057 | 46 | 346 | 5.0 | 10.0 | 0.02 | 0.65 | 0.48 | 10 | 1009.6 |
| 20260506073056 | 46 | 330 | 5.0 | 11.0 | 0.05 | 0.65 | 0.47 | 10 | 1009.4 |
| 20260506072054 | 46 | 327 | 4.0 | 12.0 | 0.05 | 0.64 | 0.46 | 10 | 1009.3 |
| 20260506071057 | 46 | 327 | 4.0 | 9.0 | 0.04 | 0.63 | 0.46 | 10 | 1009.3 |